Terug naar catalogus

FENGYUN 1C DEB

ActiefSSO
NORAD 30666·DEBRIS·🇨🇳 China

Gelanceerd May 10, 1999 vanaf Taiyuan Satellite Launch Center

Loading…

Volgende Passages (komende 24 uur)

TLE

VersSource: Space-Track

Epoch: Sep 14, 2026, 17:04 UTC

1 30666U 99025APY 26257.71171135  .00000358  00000-0  25454-3 0  9993
2 30666  98.8500 238.2126 0061752  94.8697  80.8841 14.02802133999797

Volg FENGYUN 1C DEB in realtime met AllMySat

Download on the App Store